Change the Weather History Date:

Monday, February 24, 2014

  Actual Average Record
Temperature  
Mean Temperature 21 °F -  
Max Temperature 28 °F 29 °F 47 °F (1963)
Min Temperature 14 °F 8 °F -27 °F (1971)
Degree Days  
Heating Degree Days 44    
Moisture  
Dew Point 10 °F    
Average Humidity 60    
Maximum Humidity 71    
Minimum Humidity 47    
Precipitation  
Precipitation 0.00 in - - ()
Sea Level Pressure  
Sea Level Pressure 30.09 in    
Wind  
Wind Speed 12 mph (NE)    
Max Wind Speed 16 mph    
Max Gust Speed -    
Visibility 10 miles    
Events      
Averages and records for this station are not official NWS values.
T = Trace of Precipitation, MM = Missing Value Source: NWS Daily Summary

Daily Weather History Graph

Daily Weather History Graph

Search for Another Location

Airport or City:

Trip Planner

Search our weather history database for the weather conditions in past years. The results will help you decide how hot, cold, wet, or windy it might be!

Date:

Astronomy

Feb. 24, 2014 Rise Set
Actual Time 8:18 AM AKST 6:18 PM AKST
Civil Twilight 7:35 AM AKST 7:02 PM AKST
Nautical Twilight 6:46 AM AKST 7:51 PM AKST
Astronomical Twilight 5:57 AM AKST 8:40 PM AKST
Moon 5:20 AM AKST (2/24) 12:37 PM AKST (2/24)
Length of Visible Light 11h 26m
Length of Day
10h 00m
Waning Crescent, 26% of the Moon is Illuminated
Feb 24
Waning Crescent
Feb 28
New
Mar 8
First Quarter
Mar 16
Full
Mar 23
Last Quarter

Hourly Weather History & Observations

Time (AKST) Temp. Windchill Dew Point Humidity Pressure Visibility Wind Dir Wind Speed Gust Speed Precip Events Conditions
12:53 AM 19.9 °F 7.3 °F 9.0 °F 62% 30.10 in 10.0 mi NNE 12.7 mph - N/A   Clear
1:53 AM 19.9 °F 5.7 °F 9.0 °F 62% 30.10 in 10.0 mi NE 16.1 mph - N/A   Clear
3:53 AM 17.1 °F 5.0 °F 7.0 °F 65% 30.09 in 10.0 mi NE 10.4 mph - N/A   Clear
4:53 AM 15.1 °F 4.2 °F 6.1 °F 68% 30.09 in 10.0 mi NE 8.1 mph - N/A   Clear
5:53 AM 15.1 °F 1.1 °F 6.1 °F 68% 30.08 in 10.0 mi NE 12.7 mph - N/A   Clear
6:53 AM 14.0 °F 0.5 °F 6.1 °F 71% 30.07 in 10.0 mi NE 11.5 mph - N/A   Clear
7:53 AM 15.1 °F 1.8 °F 6.1 °F 68% 30.07 in 10.0 mi NE 11.5 mph - N/A   Clear
8:53 AM 14.0 °F 3.9 °F 6.1 °F 71% 30.09 in 8.0 mi NE 6.9 mph - N/A   Clear
9:53 AM 16.0 °F 4.4 °F 6.1 °F 65% 30.10 in 10.0 mi NE 9.2 mph - N/A   Clear
10:53 AM 21.0 °F 9.3 °F 8.1 °F 57% 30.10 in 10.0 mi NE 11.5 mph - N/A   Clear
11:53 AM 24.1 °F 12.0 °F 9.0 °F 53% 30.10 in 10.0 mi NNE 13.8 mph - N/A   Clear
12:53 PM 26.1 °F 15.6 °F 12.9 °F 58% 30.10 in 10.0 mi North 11.5 mph - N/A   Clear
1:53 PM 28.0 °F 17.0 °F 12.9 °F 53% 30.09 in 10.0 mi NNE 13.8 mph - N/A   Clear
2:53 PM 28.9 °F 18.2 °F 12.0 °F 49% 30.09 in 10.0 mi NNE 13.8 mph - N/A   Clear
3:53 PM 28.0 °F 17.0 °F 12.0 °F 51% 30.08 in 10.0 mi NNE 13.8 mph - N/A   Clear
4:53 PM 28.0 °F 18.6 °F 10.0 °F 47% 30.07 in 10.0 mi NNW 10.4 mph - N/A   Clear
5:53 PM 25.0 °F 14.2 °F 12.0 °F 58% 30.06 in 10.0 mi NNE 11.5 mph - N/A   Clear
6:53 PM 24.1 °F 13.7 °F 12.9 °F 62% 30.08 in 10.0 mi NE 10.4 mph - N/A   Mostly Cloudy
7:53 PM 25.0 °F 13.6 °F 10.9 °F 55% 30.09 in 10.0 mi NNE 12.7 mph - N/A   Overcast
8:53 PM 25.0 °F 13.1 °F 12.0 °F 58% 30.09 in 10.0 mi NNE 13.8 mph - N/A   Overcast
9:53 PM 26.1 °F 15.0 °F 10.9 °F 53% 30.10 in 10.0 mi NE 12.7 mph - N/A   Overcast
10:53 PM 26.1 °F 15.6 °F 12.9 °F 58% 30.12 in 10.0 mi NNE 11.5 mph - N/A   Overcast
11:53 PM 26.1 °F 17.6 °F 14.0 °F 60% 30.13 in 10.0 mi NNE 8.1 mph - N/A   Overcast